2019-209T00:52:08.534,   1, 180,   1,    30,   4,          0,     41.614,  99294.559,    68.173,   -29.954,     0.909,    45.198, 2, 5.486E-04, -1.00,   2,  1.739E-03,  1.864E-04,  1.384E-13,  4.491E-14,  4.968E+02,  1.612E+02, 255
2019-209T00:52:38.534,   1, 180,   1,    30,   4,          0,     41.614,  99294.559,    68.174,   -29.954,     0.909,    44.896, 2, 5.486E-04, -1.00,   2,  2.305E-03,  1.980E-04,  1.744E-13,  4.474E-14,  4.722E+02,  1.211E+02, 255
2019-209T00:53:08.534,   1, 180,   1,    30,   4,          0,     41.614,  99294.559,    68.176,   -29.954,     0.909,    44.593, 2, 5.486E-04, -1.00,   2,  2.027E-03,  1.954E-04,  2.487E-13,  4.477E-14,  7.658E+02,  1.378E+02, 255
2019-209T00:53:38.535,   1, 180,   1,    30,   4,          0,     41.614,  99294.559,    68.178,   -29.953,     0.909,    44.291, 2, 5.486E-04, -1.00,   2,  2.115E-03,  1.995E-04,  1.376E-14,  4.483E-14,  4.061E+01,  1.323E+02, 255
2019-209T03:00:38.622,   1, 180,   1,    30,   4,          0,     41.614,  99294.559,    68.653,   -29.874,     0.907,   327.493, 2, 5.486E-04, -1.00,   2,  2.111E-03,  1.952E-04,  1.555E-13,  4.449E-14,  4.597E+02,  1.315E+02, 255
2019-209T03:01:08.622,   1, 180,   1,    30,   4,          0,     41.614,  99294.559,    68.654,   -29.874,     0.907,   327.191, 2, 5.486E-04, -1.00,   2,  2.605E-03,  2.071E-04,  2.811E-14,  4.402E-14,  6.736E+01,  1.055E+02, 255
2019-209T03:01:38.622,   1, 180,   1,    30,   4,          0,     41.614,  99294.559,    68.656,   -29.874,     0.907,   326.888, 2, 5.486E-04, -1.00,   2,  2.523E-03,  2.075E-04,  1.574E-13,  4.517E-14,  3.894E+02,  1.117E+02, 255
2019-209T03:10:38.629,   1, 180,   1,    30,   4,          0,     41.614,  99294.559,    68.690,   -29.868,     0.907,   321.446, 2, 5.486E-04, -1.00,   2,  3.108E-03,  2.144E-04,  1.197E-13,  4.438E-14,  2.405E+02,  8.914E+01, 255
2019-209T03:11:08.629,   1, 180,   1,    30,   4,          0,     41.614,  99294.559,    68.692,   -29.868,     0.907,   321.144, 2, 5.486E-04, -1.00,   2,  2.333E-03,  2.022E-04,  1.842E-13,  4.505E-14,  4.929E+02,  1.205E+02, 255
2019-209T03:11:38.629,   1, 180,   1,    30,   4,          0,     41.614,  99294.559,    68.693,   -29.868,     0.907,   320.841, 2, 5.486E-04, -1.00,   2,  2.567E-03,  2.026E-04,  1.900E-13,  4.463E-14,  4.619E+02,  1.085E+02, 255
2019-209T03:31:08.643,   1, 180,   1,    30,   4,          0,     41.614,  99294.559,    68.766,   -29.856,     0.906,   309.049, 2, 5.486E-04, -1.00,   2,  2.480E-03,  2.034E-04,  1.070E-13,  4.434E-14,  2.692E+02,  1.116E+02, 255
2019-209T03:31:38.643,   1, 180,   1,    30,   4,          0,     41.614,  99294.559,    68.768,   -29.855,     0.906,   308.747, 2, 5.486E-04, -1.00,   2,  2.476E-03,  2.019E-04,  1.303E-13,  4.388E-14,  3.286E+02,  1.106E+02, 255
2019-209T03:32:08.643,   1, 180,   1,    30,   4,          0,     41.614,  99294.559,    68.770,   -29.855,     0.906,   308.445, 2, 5.486E-04, -1.00,   2,  2.150E-03,  1.997E-04,  3.994E-14,  4.427E-14,  1.159E+02,  1.285E+02, 255
2019-209T08:00:08.827,   1, 180,   1,    30,   4,          0,     41.614,  99294.559,    69.755,   -29.692,     0.902,   146.384, 2, 5.486E-04, -1.00,   2,  2.217E-03,  1.969E-04,  7.172E-14,  4.435E-14,  2.019E+02,  1.249E+02, 255
2019-209T08:00:38.827,   1, 180,   1,    30,   4,          0,     41.614,  99294.559,    69.757,   -29.692,     0.902,   146.081, 2, 5.486E-04, -1.00,   2,  2.593E-03,  2.095E-04,  3.883E-15,  4.374E-14,  9.346E+00,  1.053E+02, 255
2019-209T08:01:08.828,   1, 180,   1,    30,   4,          0,     41.614,  99294.559,    69.759,   -29.692,     0.902,   145.779, 2, 5.486E-04, -1.00,   2,  2.537E-03,  2.041E-04,  1.229E-13,  4.457E-14,  3.025E+02,  1.097E+02, 255
2019-209T08:45:08.858,   1, 180,   1,    30,   4,          0,     41.614,  99294.559,    69.919,   -29.665,     0.902,   119.172, 2, 5.486E-04, -1.00,   2,  3.057E-03,  2.137E-04,  1.397E-13,  4.491E-14,  2.853E+02,  9.171E+01, 255
2019-209T08:45:38.858,   1, 180,   1,    30,   4,          0,     41.614,  99294.559,    69.921,   -29.665,     0.902,   118.870, 2, 5.486E-04, -1.00,   2,  2.410E-03,  2.048E-04,  1.200E-13,  4.454E-14,  3.108E+02,  1.154E+02, 255
2019-209T08:46:08.858,   1, 180,   1,    30,   4,          0,     41.614,  99294.559,    69.923,   -29.665,     0.902,   118.567, 2, 5.486E-04, -1.00,   2,  2.690E-03,  2.091E-04,  1.444E-13,  4.456E-14,  3.352E+02,  1.034E+02, 255
2019-209T08:59:38.868,   1, 180,   1,    30,   4,          0,     41.614,  99294.559,    69.972,   -29.657,     0.902,   110.404, 2, 5.486E-04, -1.00,   2,  2.851E-03,  2.129E-04,  1.749E-13,  4.454E-14,  3.830E+02,  9.752E+01, 255
2019-209T09:00:08.868,   1, 180,   1,    30,   4,          0,     41.614,  99294.559,    69.973,   -29.656,     0.902,   110.102, 2, 5.486E-04, -1.00,   2,  3.169E-03,  2.192E-04,  2.555E-13,  4.487E-14,  5.033E+02,  8.838E+01, 255
2019-209T09:00:38.868,   1, 180,   1,    30,   4,          0,     41.614,  99294.559,    69.975,   -29.656,     0.902,   109.799, 2, 5.486E-04, -1.00,   2,  2.794E-03,  2.046E-04,  2.355E-13,  4.518E-14,  5.260E+02,  1.009E+02, 255
2019-209T09:10:38.875,   1, 180,   1,    30,   4,          0,     41.614,  99294.559,    70.011,   -29.650,     0.902,   103.752, 2, 5.486E-04, -1.00,   2,  2.401E-03,  1.990E-04,  1.293E-13,  4.472E-14,  3.360E+02,  1.162E+02, 255
2019-209T09:11:08.875,   1, 180,   1,    30,   4,          0,     41.614,  99294.559,    70.013,   -29.650,     0.902,   103.450, 2, 5.486E-04, -1.00,   2,  2.674E-03,  2.104E-04,  1.372E-13,  4.429E-14,  3.204E+02,  1.034E+02, 255
2019-209T09:11:38.876,   1, 180,   1,    30,   4,          0,     41.614,  99294.559,    70.015,   -29.650,     0.902,   103.147, 2, 5.486E-04, -1.00,   2,  2.534E-03,  2.080E-04,  7.582E-14,  4.495E-14,  1.867E+02,  1.107E+02, 255
2019-209T09:38:38.894,   1, 180,   1,    30,   4,          0,     41.614,  99294.559,    70.113,   -29.633,     0.901,    86.821, 2, 5.486E-04, -1.00,   2,  2.493E-03,  2.080E-04,  5.911E-14,  4.515E-14,  1.480E+02,  1.130E+02, 255
2019-209T09:39:08.895,   1, 180,   1,    30,   4,          0,     41.614,  99294.559,    70.115,   -29.633,     0.901,    86.518, 2, 5.486E-04, -1.00,   2,  2.401E-03,  2.103E-04,  1.553E-13,  4.570E-14,  4.037E+02,  1.188E+02, 255
2019-209T09:39:38.895,   1, 180,   1,    30,   4,          0,     41.614,  99294.559,    70.117,   -29.633,     0.901,    86.216, 2, 5.486E-04, -1.00,   2,  2.196E-03,  2.027E-04,  1.478E-13,  4.469E-14,  4.201E+02,  1.270E+02, 255
2019-209T10:59:38.950,   1, 180,   1,    30,   4,          0,     41.614,  99294.559,    70.405,   -29.586,     0.900,    37.840, 2, 5.486E-04, -1.00,   2,  2.305E-03,  2.099E-04,  6.539E-14,  4.481E-14,  1.770E+02,  1.213E+02, 255
2019-209T11:00:08.950,   1, 180,   1,    30,   4,          0,     41.614,  99294.559,    70.407,   -29.585,     0.900,    37.538, 2, 5.486E-04, -1.00,   2,  2.644E-03,  1.994E-04,  2.435E-13,  4.418E-14,  5.747E+02,  1.043E+02, 255
2019-209T11:00:38.951,   1, 180,   1,    30,   4,          0,     41.614,  99294.559,    70.409,   -29.585,     0.900,    37.235, 2, 5.486E-04, -1.00,   2,  2.506E-03,  2.180E-04,  1.353E-13,  4.596E-14,  3.370E+02,  1.145E+02, 255
2019-209T11:15:38.961,   1, 180,   1,    30,   4,          0,     41.614,  99294.559,    70.463,   -29.576,     0.900,    28.165, 2, 5.486E-04, -1.00,   2,  2.645E-03,  2.095E-04,  5.701E-14,  4.407E-14,  1.345E+02,  1.040E+02, 255
2019-209T11:16:08.961,   1, 180,   1,    30,   4,          0,     41.614,  99294.559,    70.465,   -29.576,     0.900,    27.862, 2, 5.486E-04, -1.00,   2,  2.783E-03,  2.129E-04,  9.100E-14,  4.417E-14,  2.041E+02,  9.905E+01, 255
2019-209T11:16:38.962,   1, 180,   1,    30,   4,          0,     41.614,  99294.559,    70.466,   -29.576,     0.900,    27.560, 2, 5.486E-04, -1.00,   2,  2.558E-03,  2.122E-04,  3.240E-14,  4.455E-14,  7.904E+01,  1.087E+02, 255
2019-209T11:17:08.962,   1, 180,   1,    30,   4,          0,     41.614,  99294.559,    70.468,   -29.575,     0.900,    27.258, 2, 5.486E-04, -1.00,   2,  2.629E-03,  2.097E-04,  1.818E-13,  4.462E-14,  4.316E+02,  1.059E+02, 255
2019-209T11:36:08.975,   1, 180,   1,    30,   4,          0,     41.614,  99294.559,    70.537,   -29.564,     0.899,    15.768, 2, 5.486E-04, -1.00,   2,  2.083E-03,  1.977E-04,  9.566E-14,  4.460E-14,  2.866E+02,  1.336E+02, 255
2019-209T11:36:38.975,   1, 180,   1,    30,   4,          0,     41.614,  99294.559,    70.538,   -29.564,     0.899,    15.466, 2, 5.486E-04, -1.00,   2,  3.026E-03,  2.189E-04,  3.255E-14,  4.471E-14,  6.714E+01,  9.224E+01, 255
2019-209T11:37:08.976,   1, 180,   1,    30,   4,          0,     41.614,  99294.559,    70.540,   -29.564,     0.899,    15.164, 2, 5.486E-04, -1.00,   2,  2.465E-03,  2.085E-04,  7.229E-14,  4.386E-14,  1.830E+02,  1.111E+02, 255
2019-209T12:00:08.991,   1, 180,   1,    30,   4,          0,     41.614,  99294.559,    70.623,   -29.550,     0.899,     1.256, 2, 5.486E-04, -1.00,   2,  2.871E-03,  2.153E-04,  6.607E-14,  4.448E-14,  1.436E+02,  9.671E+01, 255
2019-209T12:00:38.992,   1, 180,   1,    30,   4,          0,     41.614,  99294.559,    70.624,   -29.550,     0.899,     0.953, 2, 5.486E-04, -1.00,   2,  2.709E-03,  2.114E-04,  2.844E-15,  4.489E-14,  6.554E+00,  1.034E+02, 255
2019-209T12:01:08.992,   1, 180,   1,    30,   4,          0,     41.614,  99294.559,    70.626,   -29.550,     0.899,     0.651, 2, 5.486E-04, -1.00,   2,  2.763E-03,  2.114E-04,  1.795E-13,  4.483E-14,  4.055E+02,  1.013E+02, 255
2019-209T12:01:38.992,   1, 180,   1,    30,   4,          0,     41.614,  99294.559,    70.628,   -29.549,     0.899,     0.349, 2, 5.486E-04, -1.00,   2,  2.306E-03,  2.037E-04,  4.815E-14,  4.460E-14,  1.303E+02,  1.207E+02, 255
2019-209T12:02:08.993,   1, 180,   1,    30,   4,          0,     41.614,  99294.559,    70.630,   -29.549,     0.899,     0.046, 2, 5.486E-04, -1.00,   2,  2.125E-03,  1.948E-04,  2.635E-13,  4.573E-14,  7.741E+02,  1.343E+02, 255
2019-209T12:30:09.012,   1, 180,   1,    30,   4,          0,     41.614,  99294.559,    70.730,   -29.533,     0.899,   343.115, 2, 5.486E-04, -1.00,   2,  2.191E-03,  2.044E-04,  6.634E-14,  4.494E-14,  1.890E+02,  1.280E+02, 255
2019-209T12:30:39.012,   1, 180,   1,    30,   4,          0,     41.614,  99294.559,    70.732,   -29.532,     0.899,   342.812, 2, 5.486E-04, -1.00,   2,  2.694E-03,  2.105E-04,  6.689E-14,  4.430E-14,  1.549E+02,  1.026E+02, 255
2019-209T12:31:09.012,   1, 180,   1,    30,   4,          0,     41.614,  99294.559,    70.734,   -29.532,     0.899,   342.510, 2, 5.486E-04, -1.00,   2,  2.366E-03,  2.066E-04,  2.047E-14,  4.432E-14,  5.400E+01,  1.169E+02, 255
2019-209T12:31:39.013,   1, 180,   1,    30,   4,          0,     41.614,  99294.559,    70.736,   -29.532,     0.899,   342.208, 2, 5.486E-04, -1.00,   2,  2.250E-03,  2.038E-04,  4.143E-13,  4.658E-14,  1.149E+03,  1.292E+02, 255
2019-209T12:52:39.027,   1, 180,   1,    30,   4,          0,     41.614,  99294.559,    70.811,   -29.520,     0.899,   329.509, 2, 5.486E-04, -1.00,   2,  2.986E-03,  2.154E-04,  1.533E-13,  4.507E-14,  3.203E+02,  9.421E+01, 255
2019-209T12:53:09.028,   1, 180,   1,    30,   4,          0,     41.614,  99294.559,    70.812,   -29.519,     0.899,   329.207, 2, 5.486E-04, -1.00,   2,  2.499E-03,  2.112E-04,  1.673E-13,  4.487E-14,  4.178E+02,  1.121E+02, 255
2019-209T12:53:39.028,   1, 180,   1,    30,   4,          0,     41.614,  99294.559,    70.814,   -29.519,     0.899,   328.904, 2, 5.486E-04, -1.00,   2,  2.288E-03,  2.053E-04,  8.105E-14,  4.435E-14,  2.211E+02,  1.210E+02, 255
2019-209T12:54:09.028,   1, 180,   1,    30,   4,          0,     41.614,  99294.559,    70.816,   -29.519,     0.899,   328.602, 2, 5.486E-04, -1.00,   2,  2.198E-03,  1.967E-04,  1.251E-13,  4.453E-14,  3.553E+02,  1.264E+02, 255
2019-209T13:43:09.062,   1, 180,   1,    30,   4,          0,     41.614,  99294.559,    70.991,   -29.490,     0.898,   298.972, 2, 5.486E-04, -1.00,   2,  2.978E-03,  2.154E-04,  2.257E-13,  4.523E-14,  4.731E+02,  9.481E+01, 255
2019-209T13:43:39.062,   1, 180,   1,    30,   4,          0,     41.614,  99294.559,    70.992,   -29.490,     0.898,   298.669, 2, 5.486E-04, -1.00,   2,  2.412E-03,  1.999E-04,  2.465E-13,  4.475E-14,  6.378E+02,  1.158E+02, 255
2019-209T13:44:09.063,   1, 180,   1,    30,   4,          0,     41.614,  99294.559,    70.994,   -29.490,     0.898,   298.367, 2, 5.486E-04, -1.00,   2,  2.143E-03,  1.982E-04,  6.675E-14,  4.540E-14,  1.944E+02,  1.322E+02, 255
2019-209T13:44:39.063,   1, 180,   1,    30,   4,          0,     41.614,  99294.559,    70.996,   -29.489,     0.898,   298.065, 2, 5.486E-04, -1.00,   2,  2.370E-03,  2.037E-04,  6.230E-14,  4.426E-14,  1.641E+02,  1.165E+02, 255
2019-209T13:45:09.063,   1, 180,   1,    30,   4,          0,     41.614,  99294.559,    70.998,   -29.489,     0.898,   297.762, 2, 5.486E-04, -1.00,   2,  2.602E-03,  2.087E-04,  1.200E-13,  4.463E-14,  2.879E+02,  1.071E+02, 255
2019-209T13:45:39.063,   1, 180,   1,    30,   4,          0,     41.614,  99294.559,    71.000,   -29.489,     0.898,   297.460, 2, 5.486E-04, -1.00,   2,  2.076E-03,  1.938E-04,  2.292E-14,  4.399E-14,  6.892E+01,  1.323E+02, 255
2019-209T13:54:39.070,   1, 180,   1,    30,   4,          0,     41.614,  99294.559,    71.032,   -29.484,     0.898,   292.018, 2, 5.486E-04, -1.00,   2,  2.598E-03,  2.070E-04,  1.690E-13,  4.484E-14,  4.061E+02,  1.077E+02, 255
2019-209T13:55:09.070,   1, 180,   1,    30,   4,          0,     41.614,  99294.559,    71.033,   -29.483,     0.897,   291.715, 2, 5.486E-04, -1.00,   2,  2.392E-03,  2.077E-04,  2.010E-13,  4.503E-14,  5.246E+02,  1.175E+02, 255
2019-209T13:55:39.070,   1, 180,   1,    30,   4,          0,     41.614,  99294.559,    71.035,   -29.483,     0.897,   291.413, 2, 5.486E-04, -1.00,   2,  2.615E-03,  2.117E-04,  6.398E-14,  4.460E-14,  1.527E+02,  1.065E+02, 255
2019-209T13:56:09.071,   1, 180,   1,    30,   4,          0,     41.614,  99294.559,    71.037,   -29.483,     0.897,   291.111, 2, 5.486E-04, -1.00,   2,  2.902E-03,  2.100E-04,  7.830E-14,  4.475E-14,  1.684E+02,  9.625E+01, 255
2019-209T14:08:39.079,   1, 180,   1,    30,   4,          0,     41.614,  99294.559,    71.081,   -29.476,     0.897,   283.552, 2, 5.486E-04, -1.00,   2,  2.412E-03,  2.042E-04,  1.333E-14,  4.454E-14,  3.448E+01,  1.153E+02, 255
2019-209T14:09:09.080,   1, 180,   1,    30,   4,          0,     41.614,  99294.559,    71.083,   -29.475,     0.897,   283.250, 2, 5.486E-04, -1.00,   2,  2.961E-03,  2.091E-04,  1.630E-13,  4.470E-14,  3.436E+02,  9.424E+01, 255
2019-209T14:09:39.080,   1, 180,   1,    30,   4,          0,     41.614,  99294.559,    71.085,   -29.475,     0.897,   282.947, 2, 5.486E-04, -1.00,   2,  2.807E-03,  2.173E-04,  6.886E-14,  4.462E-14,  1.531E+02,  9.923E+01, 255
2019-209T14:16:39.085,   1, 180,   1,    30,   4,          0,     41.614,  99294.559,    71.110,   -29.471,     0.897,   278.714, 2, 5.486E-04, -1.00,   2,  2.434E-03,  2.088E-04,  3.625E-14,  4.472E-14,  9.294E+01,  1.147E+02, 255
2019-209T14:17:09.085,   1, 180,   1,    30,   4,          0,     41.614,  99294.559,    71.112,   -29.471,     0.897,   278.412, 2, 5.486E-04, -1.00,   2,  2.703E-03,  2.092E-04,  1.354E-13,  4.429E-14,  3.128E+02,  1.023E+02, 255
2019-209T14:17:39.085,   1, 180,   1,    30,   4,          0,     41.614,  99294.559,    71.113,   -29.470,     0.897,   278.110, 2, 5.486E-04, -1.00,   2,  2.899E-03,  2.187E-04,  8.724E-14,  4.552E-14,  1.878E+02,  9.800E+01, 255
2019-209T14:35:39.098,   1, 180,   1,    30,   4,          0,     41.614,  99294.559,    71.177,   -29.460,     0.897,   267.225, 2, 5.486E-04, -1.00,   2,  2.918E-03,  2.144E-04,  2.359E-13,  4.533E-14,  5.047E+02,  9.697E+01, 255
2019-209T14:36:09.098,   1, 180,   1,    30,   4,          0,     41.614,  99294.559,    71.179,   -29.460,     0.897,   266.923, 2, 5.486E-04, -1.00,   2,  2.563E-03,  2.114E-04,  5.322E-14,  4.408E-14,  1.296E+02,  1.073E+02, 255
2019-209T14:36:39.098,   1, 180,   1,    30,   4,          0,     41.614,  99294.559,    71.181,   -29.459,     0.897,   266.621, 2, 5.486E-04, -1.00,   2,  2.486E-03,  2.044E-04,  1.054E-13,  4.465E-14,  2.647E+02,  1.121E+02, 255
2019-209T14:44:39.104,   1, 180,   1,    30,   4,          0,     41.614,  99294.559,    71.209,   -29.455,     0.897,   261.783, 2, 5.486E-04, -1.00,   2,  2.748E-03,  2.142E-04,  1.602E-13,  4.452E-14,  3.639E+02,  1.011E+02, 255
2019-209T14:45:09.104,   1, 180,   1,    30,   4,          0,     41.614,  99294.559,    71.211,   -29.454,     0.897,   261.481, 2, 5.486E-04, -1.00,   2,  2.152E-03,  2.035E-04,  9.115E-14,  4.478E-14,  2.643E+02,  1.298E+02, 255
2019-209T14:45:39.105,   1, 180,   1,    30,   4,          0,     41.614,  99294.559,    71.213,   -29.454,     0.897,   261.178, 2, 5.486E-04, -1.00,   2,  2.300E-03,  2.032E-04,  8.836E-14,  4.453E-14,  2.398E+02,  1.208E+02, 255
2019-209T14:47:39.106,   1, 180,   1,    30,   4,          0,     41.614,  99294.559,    71.220,   -29.453,     0.897,   259.969, 2, 5.486E-04, -1.00,   2,  2.786E-03,  2.162E-04,  6.368E-14,  4.428E-14,  1.427E+02,  9.919E+01, 255
2019-209T14:48:09.106,   1, 180,   1,    30,   4,          0,     41.614,  99294.559,    71.222,   -29.453,     0.897,   259.667, 2, 5.486E-04, -1.00,   2,  2.647E-03,  2.104E-04,  1.729E-13,  4.478E-14,  4.078E+02,  1.056E+02, 255
2019-209T14:48:39.107,   1, 180,   1,    30,   4,          0,     41.614,  99294.559,    71.223,   -29.452,     0.897,   259.364, 2, 5.486E-04, -1.00,   2,  2.222E-03,  2.051E-04,  2.171E-14,  4.420E-14,  6.098E+01,  1.242E+02, 255
2019-209T14:58:39.114,   1, 180,   1,    30,   4,          0,     41.614,  99294.559,    71.259,   -29.447,     0.897,   253.317, 2, 5.486E-04, -1.00,   2,  2.619E-03,  2.046E-04,  6.621E-14,  4.417E-14,  1.578E+02,  1.053E+02, 255
2019-209T14:59:09.114,   1, 180,   1,    30,   4,          0,     41.614,  99294.559,    71.261,   -29.446,     0.897,   253.015, 2, 5.486E-04, -1.00,   2,  2.180E-03,  1.998E-04,  1.937E-14,  4.405E-14,  5.546E+01,  1.261E+02, 255
2019-209T14:59:39.114,   1, 180,   1,    30,   4,          0,     41.614,  99294.559,    71.262,   -29.446,     0.897,   252.713, 2, 5.486E-04, -1.00,   2,  2.675E-03,  2.083E-04,  5.256E-14,  4.488E-14,  1.226E+02,  1.047E+02, 255
2019-209T20:01:39.321,   1, 180,   1,    30,   4,          0,     41.614,  99294.559,    72.321,   -29.275,     0.893,    70.096, 2, 5.486E-04, -1.00,   2,  2.077E-03,  2.046E-04,  2.153E-13,  4.513E-14,  6.470E+02,  1.356E+02, 255
2019-209T20:02:09.321,   1, 180,   1,    30,   4,          0,     41.614,  99294.559,    72.323,   -29.275,     0.893,    69.793, 2, 5.486E-04, -1.00,   2,  2.228E-03,  2.046E-04,  1.312E-13,  4.448E-14,  3.676E+02,  1.246E+02, 255
2019-209T20:02:39.322,   1, 180,   1,    30,   4,          0,     41.614,  99294.559,    72.325,   -29.275,     0.893,    69.491, 2, 5.486E-04, -1.00,   2,  2.080E-03,  1.993E-04,  1.685E-14,  4.409E-14,  5.056E+01,  1.323E+02, 255
2019-209T20:29:39.340,   1, 180,   1,    30,   4,          0,     41.614,  99294.559,    72.418,   -29.260,     0.892,    53.164, 2, 5.486E-04, -1.00,   2,  2.020E-03,  2.007E-04,  1.071E-13,  4.437E-14,  3.308E+02,  1.371E+02, 255
2019-209T20:30:09.340,   1, 180,   1,    30,   4,          0,     41.614,  99294.559,    72.420,   -29.259,     0.892,    52.862, 2, 5.486E-04, -1.00,   2,  2.896E-03,  2.096E-04,  1.075E-13,  4.413E-14,  2.317E+02,  9.511E+01, 255
2019-209T20:30:39.341,   1, 180,   1,    30,   4,          0,     41.614,  99294.559,    72.422,   -29.259,     0.892,    52.560, 2, 5.486E-04, -1.00,   2,  2.350E-03,  2.049E-04,  4.196E-15,  4.478E-14,  1.114E+01,  1.189E+02, 255
2019-209T20:34:39.344,   1, 180,   1,    30,   4,          0,     41.614,  99294.559,    72.436,   -29.257,     0.892,    50.141, 2, 5.486E-04, -1.00,   2,  2.525E-03,  2.071E-04,  1.628E-14,  4.381E-14,  4.025E+01,  1.083E+02, 255
2019-209T20:35:09.344,   1, 180,   1,    30,   4,          0,     41.614,  99294.559,    72.438,   -29.257,     0.892,    49.839, 2, 5.486E-04, -1.00,   2,  2.314E-03,  2.044E-04,  1.612E-13,  4.467E-14,  4.348E+02,  1.205E+02, 255
2019-209T20:35:39.344,   1, 180,   1,    30,   4,          0,     41.614,  99294.559,    72.439,   -29.256,     0.892,    49.536, 2, 5.486E-04, -1.00,   2,  2.564E-03,  2.065E-04,  7.222E-14,  4.422E-14,  1.758E+02,  1.076E+02, 255
2019-209T20:38:09.346,   1, 180,   1,    30,   4,          0,     41.614,  99294.559,    72.448,   -29.255,     0.892,    48.025, 2, 5.486E-04, -1.00,   2,  2.513E-03,  2.042E-04,  1.980E-13,  4.517E-14,  4.918E+02,  1.122E+02, 255
2019-209T20:38:39.346,   1, 180,   1,    30,   4,          0,     41.614,  99294.559,    72.450,   -29.255,     0.892,    47.722, 2, 5.486E-04, -1.00,   2,  2.317E-03,  2.050E-04,  1.416E-13,  4.461E-14,  3.814E+02,  1.202E+02, 255
2019-209T20:39:09.347,   1, 180,   1,    30,   4,          0,     41.614,  99294.559,    72.451,   -29.254,     0.892,    47.420, 2, 5.486E-04, -1.00,   2,  2.672E-03,  2.098E-04,  1.354E-13,  4.480E-14,  3.163E+02,  1.047E+02, 255
2019-209T20:46:39.352,   1, 180,   1,    30,   4,          0,     41.614,  99294.559,    72.477,   -29.250,     0.892,    42.885, 2, 5.486E-04, -1.00,   2,  2.925E-03,  2.124E-04,  5.367E-14,  4.498E-14,  1.145E+02,  9.598E+01, 255
2019-209T20:47:09.352,   1, 180,   1,    30,   4,          0,     41.614,  99294.559,    72.479,   -29.250,     0.892,    42.582, 2, 5.486E-04, -1.00,   2,  2.735E-03,  2.089E-04,  1.032E-13,  4.482E-14,  2.356E+02,  1.023E+02, 255
2019-209T20:47:39.352,   1, 180,   1,    30,   4,          0,     41.614,  99294.559,    72.481,   -29.250,     0.892,    42.280, 2, 5.486E-04, -1.00,   2,  2.180E-03,  2.073E-04,  5.388E-14,  4.495E-14,  1.543E+02,  1.287E+02, 255
2019-209T20:48:09.353,   1, 180,   1,    30,   4,          0,     41.614,  99294.559,    72.483,   -29.249,     0.892,    41.978, 2, 5.486E-04, -1.00,   2,  2.256E-03,  2.006E-04,  1.604E-13,  4.559E-14,  4.436E+02,  1.261E+02, 255
2019-209T21:41:39.389,   1, 180,   1,    30,   4,          0,     41.614,  99294.559,    72.667,   -29.220,     0.891,     9.627, 2, 5.486E-04, -1.00,   2,  2.468E-03,  1.997E-04,  2.026E-13,  4.506E-14,  5.124E+02,  1.140E+02, 255
2019-209T21:42:09.390,   1, 180,   1,    30,   4,          0,     41.614,  99294.559,    72.669,   -29.220,     0.891,     9.324, 2, 5.486E-04, -1.00,   2,  1.881E-03,  1.987E-04,  1.440E-13,  4.478E-14,  4.776E+02,  1.486E+02, 255
2019-209T21:42:39.390,   1, 180,   1,    30,   4,          0,     41.614,  99294.559,    72.671,   -29.219,     0.891,     9.022, 2, 5.486E-04, -1.00,   2,  2.700E-03,  2.102E-04,  1.752E-13,  4.496E-14,  4.050E+02,  1.039E+02, 255
2019-209T22:39:39.429,   1, 180,   1,    30,   4,          0,     41.614,  99294.559,    72.867,   -29.188,     0.891,   334.555, 2, 5.486E-04, -1.00,   2,  2.550E-03,  2.085E-04,  2.797E-13,  4.577E-14,  6.848E+02,  1.120E+02, 255
2019-209T22:40:09.429,   1, 180,   1,    30,   4,          0,     41.614,  99294.559,    72.869,   -29.188,     0.891,   334.253, 2, 5.486E-04, -1.00,   2,  2.588E-03,  2.172E-04,  3.754E-15,  4.440E-14,  9.052E+00,  1.070E+02, 255
2019-209T22:40:39.430,   1, 180,   1,    30,   4,          0,     41.614,  99294.559,    72.870,   -29.187,     0.891,   333.950, 2, 5.486E-04, -1.00,   2,  2.639E-03,  2.057E-04,  3.380E-14,  4.430E-14,  7.993E+01,  1.048E+02, 255
2019-209T22:43:09.432,   1, 180,   1,    30,   4,          0,     41.614,  99294.559,    72.879,   -29.186,     0.891,   332.439, 2, 5.486E-04, -1.00,   2,  2.577E-03,  2.085E-04,  5.130E-14,  4.455E-14,  1.243E+02,  1.079E+02, 255
2019-209T22:43:39.432,   1, 180,   1,    30,   4,          0,     41.614,  99294.559,    72.881,   -29.186,     0.891,   332.136, 2, 5.486E-04, -1.00,   2,  2.512E-03,  2.126E-04,  3.119E-14,  4.471E-14,  7.750E+01,  1.111E+02, 255